70P/Kojima (2021)

Japanese version
Home page
Updated on February 21, 2021

---------------------------------------------------------------------

* Profile

* Orbital Elements

Epoch 2021 Nov. 2.0 TT = JDT 2459520.5
T 2021 Nov. 3.11620 TT                                  Rudenko
q   2.0090067            (2000.0)            P               Q
n   0.13974167     Peri.    1.82728     -0.51629457     -0.85052505
a   3.6777773      Node   119.26907     +0.78427718     -0.51657363
e   0.4537443      Incl.    6.59812     +0.34401922     -0.09878677
P   7.05
From 1138 observations 1970 Dec. 29-2021 Jan. 6, mean residual 0".9.
     Nongravitational parameters A1 = +0.01, A2 = -0.0078.

* Finding Charts

* Magnitudes Graph

        m1 = 10.5 + 5 log d + 15.0 log r(t - 50)

---------------------------------------------------------------------

The orbital elements are published on M.P.E.C. 2021-B143.
The charts are made with StellaNavigator Ver.10 (AstroArts).
The magnitudes graphs are made with Comet for Windows.

---------------------------------------------------------------------

Copyright(C) Seiichi Yoshida (comet@aerith.net). All rights reserved.